Time,TemperatureF,DewpointF,PressureIn,WindDirection,WindDirectionDegrees,WindSpeedMPH,WindSpeedGustMPH,Humidity,HourlyPrecipIn,Conditions,Clouds,dailyrainin,SolarRadiationWatts/m^2,SoftwareType,DateUTC
2013-02-13 00:01:00,38.0,30.0,-100.00,ESE,112,2.0,5.0,74,0.00,,,0.00,0.000000,,2013-02-13 08:01:00,
2013-02-13 00:11:00,41.0,30.0,-100.00,East,91,6.0,8.0,65,0.00,,,0.00,0.000000,,2013-02-13 08:11:00,
2013-02-13 00:32:00,41.0,30.0,-100.00,East,91,6.0,8.0,65,0.00,,,0.00,0.000000,,2013-02-13 08:32:00,
2013-02-13 00:43:00,41.0,30.0,-100.00,East,91,6.0,8.0,65,0.00,,,0.00,0.000000,,2013-02-13 08:43:00,
2013-02-13 00:52:00,41.0,30.0,-100.00,East,91,6.0,8.0,65,0.00,,,0.00,0.000000,,2013-02-13 08:52:00,
2013-02-13 01:01:00,41.0,30.0,-100.00,East,91,6.0,8.0,65,0.00,,,0.00,0.000000,,2013-02-13 09:01:00,
2013-02-13 01:11:00,41.0,31.0,-100.00,East,98,6.0,9.0,67,0.00,,,0.00,0.000000,,2013-02-13 09:11:00,
2013-02-13 01:42:00,41.0,31.0,-100.00,East,98,6.0,9.0,67,0.00,,,0.00,0.000000,,2013-02-13 09:42:00,
2013-02-13 01:52:00,41.0,31.0,-100.00,East,98,6.0,9.0,67,0.00,,,0.00,0.000000,,2013-02-13 09:52:00,
2013-02-13 02:01:00,41.0,31.0,-100.00,East,98,6.0,9.0,67,0.00,,,0.00,0.000000,,2013-02-13 10:01:00,
2013-02-13 02:11:00,40.0,31.0,-100.00,ESE,104,4.0,9.0,70,0.00,,,0.00,0.000000,,2013-02-13 10:11:00,
2013-02-13 02:32:00,40.0,31.0,-100.00,ESE,104,4.0,9.0,70,0.00,,,0.00,0.000000,,2013-02-13 10:32:00,
2013-02-13 02:42:00,40.0,31.0,-100.00,ESE,104,4.0,9.0,70,0.00,,,0.00,0.000000,,2013-02-13 10:42:00,
2013-02-13 02:52:00,40.0,31.0,-100.00,ESE,104,4.0,9.0,70,0.00,,,0.00,0.000000,,2013-02-13 10:52:00,
2013-02-13 03:01:00,40.0,31.0,-100.00,ESE,104,4.0,9.0,70,0.00,,,0.00,0.000000,,2013-02-13 11:01:00,
2013-02-13 03:11:00,37.0,30.0,-100.00,South,177,1.0,9.0,77,0.00,,,0.00,0.000000,,2013-02-13 11:11:00,
2013-02-13 03:32:00,37.0,30.0,-100.00,South,177,1.0,9.0,77,0.00,,,0.00,0.000000,,2013-02-13 11:32:00,
2013-02-13 03:42:00,37.0,30.0,-100.00,South,177,1.0,9.0,77,0.00,,,0.00,0.000000,,2013-02-13 11:42:00,
2013-02-13 03:52:00,37.0,30.0,-100.00,South,177,1.0,9.0,77,0.00,,,0.00,0.000000,,2013-02-13 11:52:00,
2013-02-13 04:02:00,37.0,30.0,-100.00,South,177,1.0,9.0,77,0.00,,,0.00,0.000000,,2013-02-13 12:02:00,
2013-02-13 04:11:00,37.0,30.0,-100.00,ESE,119,2.0,5.0,77,0.00,,,0.00,0.000000,,2013-02-13 12:11:00,
2013-02-13 04:42:00,37.0,30.0,-100.00,ESE,119,2.0,5.0,77,0.00,,,0.00,0.000000,,2013-02-13 12:42:00,
2013-02-13 04:52:00,37.0,30.0,-100.00,ESE,119,2.0,5.0,77,0.00,,,0.00,0.000000,,2013-02-13 12:52:00,
2013-02-13 05:02:00,37.0,30.0,-100.00,ESE,119,2.0,5.0,77,0.00,,,0.00,0.000000,,2013-02-13 13:02:00,
2013-02-13 05:11:00,38.0,29.0,-100.00,ESE,109,3.0,5.0,70,0.00,,,0.00,0.000000,,2013-02-13 13:11:00,
2013-02-13 05:42:00,38.0,29.0,-100.00,ESE,109,3.0,5.0,70,0.00,,,0.00,0.000000,,2013-02-13 13:42:00,
2013-02-13 05:52:00,38.0,29.0,-100.00,ESE,109,3.0,5.0,70,0.00,,,0.00,0.000000,,2013-02-13 13:52:00,
2013-02-13 06:01:00,38.0,29.0,-100.00,ESE,109,3.0,5.0,70,0.00,,,0.00,0.000000,,2013-02-13 14:01:00,
2013-02-13 06:11:00,39.0,27.0,-100.00,ESE,119,5.0,10.0,63,0.00,,,0.00,0.000000,,2013-02-13 14:11:00,
2013-02-13 06:32:00,39.0,27.0,-100.00,ESE,119,5.0,10.0,63,0.00,,,0.00,0.000000,,2013-02-13 14:32:00,
2013-02-13 06:42:00,39.0,27.0,-100.00,ESE,119,5.0,10.0,63,0.00,,,0.00,0.000000,,2013-02-13 14:42:00,
2013-02-13 06:52:00,39.0,27.0,-100.00,ESE,119,5.0,10.0,63,0.00,,,0.00,0.000000,,2013-02-13 14:52:00,
2013-02-13 07:01:00,39.0,27.0,-100.00,ESE,119,5.0,10.0,63,0.00,,,0.00,0.000000,,2013-02-13 15:01:00,
2013-02-13 07:11:00,40.0,28.0,-100.00,East,87,5.0,11.0,61,0.00,,,0.00,2.000000,,2013-02-13 15:11:00,
2013-02-13 07:42:00,40.0,28.0,-100.00,East,87,5.0,11.0,61,0.00,,,0.00,2.000000,,2013-02-13 15:42:00,
2013-02-13 07:52:00,40.0,28.0,-100.00,East,87,5.0,11.0,61,0.00,,,0.00,2.000000,,2013-02-13 15:52:00,
2013-02-13 08:01:00,40.0,28.0,-100.00,East,87,5.0,11.0,61,0.00,,,0.00,2.000000,,2013-02-13 16:01:00,
2013-02-13 08:11:00,44.0,31.0,-100.00,East,99,4.0,7.0,60,0.00,,,0.00,83.000000,,2013-02-13 16:11:00,
2013-02-13 08:42:00,44.0,31.0,-100.00,East,99,4.0,7.0,60,0.00,,,0.00,83.000000,,2013-02-13 16:42:00,
2013-02-13 08:52:00,44.0,31.0,-100.00,East,99,4.0,7.0,60,0.00,,,0.00,83.000000,,2013-02-13 16:52:00,
2013-02-13 09:01:00,44.0,31.0,-100.00,East,99,4.0,7.0,60,0.00,,,0.00,83.000000,,2013-02-13 17:01:00,
2013-02-13 09:42:00,55.0,34.0,-100.00,WNW,282,1.0,5.0,45,0.00,,,0.00,281.000000,,2013-02-13 17:42:00,
2013-02-13 09:52:00,55.0,34.0,-100.00,WNW,282,1.0,5.0,45,0.00,,,0.00,281.000000,,2013-02-13 17:52:00,
2013-02-13 10:01:00,55.0,34.0,-100.00,WNW,282,1.0,5.0,45,0.00,,,0.00,281.000000,,2013-02-13 18:01:00,
2013-02-13 10:11:00,56.0,33.0,-100.00,NW,312,6.0,8.0,41,0.00,,,-99.99,445.000000,,2013-02-13 18:11:00,
2013-02-13 10:32:00,56.0,33.0,-100.00,NW,312,6.0,8.0,41,0.00,,,-99.99,445.000000,,2013-02-13 18:32:00,
2013-02-13 10:42:00,56.0,33.0,-100.00,NW,312,6.0,8.0,41,0.00,,,-99.99,445.000000,,2013-02-13 18:42:00,
2013-02-13 10:52:00,56.0,33.0,-100.00,NW,312,6.0,8.0,41,0.00,,,-99.99,445.000000,,2013-02-13 18:52:00,
2013-02-13 11:01:00,56.0,33.0,-100.00,NW,312,6.0,8.0,41,0.00,,,-99.99,445.000000,,2013-02-13 19:01:00,
2013-02-13 11:11:00,58.0,32.0,-100.00,WNW,286,8.0,11.0,37,0.00,,,0.00,568.000000,,2013-02-13 19:11:00,
2013-02-13 11:32:00,58.0,32.0,-100.00,WNW,286,8.0,11.0,37,0.00,,,0.00,568.000000,,2013-02-13 19:32:00,
2013-02-13 11:42:00,58.0,32.0,-100.00,WNW,286,8.0,11.0,37,0.00,,,0.00,568.000000,,2013-02-13 19:42:00,
2013-02-13 11:52:00,58.0,32.0,-100.00,WNW,286,8.0,11.0,37,0.00,,,0.00,568.000000,,2013-02-13 19:52:00,
2013-02-13 12:02:00,58.0,32.0,-100.00,WNW,286,8.0,11.0,37,0.00,,,0.00,568.000000,,2013-02-13 20:02:00,
2013-02-13 12:11:00,60.0,33.0,-100.00,WNW,285,8.0,12.0,36,0.00,,,-99.99,640.000000,,2013-02-13 20:11:00,
2013-02-13 12:42:00,60.0,33.0,-100.00,WNW,285,8.0,12.0,36,0.00,,,-99.99,640.000000,,2013-02-13 20:42:00,
2013-02-13 12:52:00,60.0,33.0,-100.00,WNW,285,8.0,12.0,36,0.00,,,-99.99,640.000000,,2013-02-13 20:52:00,
2013-02-13 13:01:00,60.0,33.0,-100.00,WNW,285,8.0,12.0,36,0.00,,,-99.99,640.000000,,2013-02-13 21:01:00,
2013-02-13 13:11:00,61.0,35.0,-100.00,WNW,295,11.0,16.0,38,0.00,,,0.00,652.000000,,2013-02-13 21:11:00,
2013-02-13 13:42:00,61.0,35.0,-100.00,WNW,295,11.0,16.0,38,0.00,,,0.00,652.000000,,2013-02-13 21:42:00,
2013-02-13 13:52:00,61.0,35.0,-100.00,WNW,295,11.0,16.0,38,0.00,,,0.00,652.000000,,2013-02-13 21:52:00,
2013-02-13 14:02:00,61.0,35.0,-100.00,WNW,295,11.0,16.0,38,0.00,,,0.00,652.000000,,2013-02-13 22:02:00,
2013-02-13 14:11:00,62.0,37.0,-100.00,NW,309,11.0,15.0,39,0.00,,,0.00,602.000000,,2013-02-13 22:11:00,
2013-02-13 14:42:00,62.0,37.0,-100.00,NW,309,11.0,15.0,39,0.00,,,0.00,602.000000,,2013-02-13 22:42:00,
2013-02-13 14:52:00,62.0,37.0,-100.00,NW,309,11.0,15.0,39,0.00,,,0.00,602.000000,,2013-02-13 22:52:00,
2013-02-13 15:01:00,62.0,37.0,-100.00,NW,309,11.0,15.0,39,0.00,,,0.00,602.000000,,2013-02-13 23:01:00,
2013-02-13 15:11:00,62.0,38.0,-100.00,WNW,303,9.0,15.0,41,0.00,,,0.00,499.000000,,2013-02-13 23:11:00,
2013-02-13 15:42:00,62.0,38.0,-100.00,WNW,303,9.0,15.0,41,0.00,,,0.00,499.000000,,2013-02-13 23:42:00,
2013-02-13 15:52:00,62.0,38.0,-100.00,WNW,303,9.0,15.0,41,0.00,,,0.00,499.000000,,2013-02-13 23:52:00,
2013-02-13 16:01:00,62.0,38.0,-100.00,WNW,303,9.0,15.0,41,0.00,,,0.00,499.000000,,2013-02-14 00:01:00,
2013-02-13 16:11:00,60.0,41.0,-100.00,WNW,290,10.0,15.0,49,0.00,,,0.00,307.000000,,2013-02-14 00:11:00,
2013-02-13 16:42:00,60.0,41.0,-100.00,WNW,290,10.0,15.0,49,0.00,,,0.00,307.000000,,2013-02-14 00:42:00,
2013-02-13 16:52:00,60.0,41.0,-100.00,WNW,290,10.0,15.0,49,0.00,,,0.00,307.000000,,2013-02-14 00:52:00,
2013-02-13 17:01:00,60.0,41.0,-100.00,WNW,290,10.0,15.0,49,0.00,,,0.00,307.000000,,2013-02-14 01:01:00,
2013-02-13 18:11:00,51.0,38.0,-100.00,NE,35,2.0,10.0,62,-99.99,,,0.00,19.000000,,2013-02-14 02:11:00,
2013-02-13 19:02:00,51.0,38.0,-100.00,NE,35,2.0,10.0,62,-99.99,,,0.00,19.000000,,2013-02-14 03:02:00,
2013-02-13 19:11:00,46.0,36.0,-100.00,East,95,2.0,6.0,68,0.00,,,0.00,0.000000,,2013-02-14 03:11:00,
2013-02-13 19:32:00,46.0,36.0,-100.00,East,95,2.0,6.0,68,0.00,,,0.00,0.000000,,2013-02-14 03:32:00,
2013-02-13 19:42:00,46.0,36.0,-100.00,East,95,2.0,6.0,68,0.00,,,0.00,0.000000,,2013-02-14 03:42:00,
2013-02-13 19:52:00,46.0,36.0,-100.00,East,95,2.0,6.0,68,0.00,,,0.00,0.000000,,2013-02-14 03:52:00,
2013-02-13 20:01:00,46.0,36.0,-100.00,East,95,2.0,6.0,68,0.00,,,0.00,0.000000,,2013-02-14 04:01:00,
2013-02-13 20:11:00,46.0,35.0,-100.00,East,80,5.0,9.0,66,0.00,,,0.00,0.000000,,2013-02-14 04:11:00,
2013-02-13 20:32:00,46.0,35.0,-100.00,East,80,5.0,9.0,66,0.00,,,0.00,0.000000,,2013-02-14 04:32:00,
2013-02-13 20:42:00,46.0,35.0,-100.00,East,80,5.0,9.0,66,0.00,,,0.00,0.000000,,2013-02-14 04:42:00,
2013-02-13 20:52:00,46.0,35.0,-100.00,East,80,5.0,9.0,66,0.00,,,0.00,0.000000,,2013-02-14 04:52:00,
2013-02-13 21:01:00,46.0,35.0,-100.00,East,80,5.0,9.0,66,0.00,,,0.00,0.000000,,2013-02-14 05:01:00,
2013-02-13 21:11:00,46.0,33.0,-100.00,East,87,6.0,9.0,60,0.00,,,0.00,0.000000,,2013-02-14 05:11:00,
2013-02-13 21:32:00,46.0,33.0,-100.00,East,87,6.0,9.0,60,0.00,,,0.00,0.000000,,2013-02-14 05:32:00,
2013-02-13 21:42:00,46.0,33.0,-100.00,East,87,6.0,9.0,60,0.00,,,0.00,0.000000,,2013-02-14 05:42:00,
2013-02-13 21:52:00,46.0,33.0,-100.00,East,87,6.0,9.0,60,0.00,,,0.00,0.000000,,2013-02-14 05:52:00,
2013-02-13 22:01:00,46.0,33.0,-100.00,East,87,6.0,9.0,60,0.00,,,0.00,0.000000,,2013-02-14 06:01:00,
2013-02-13 22:11:00,43.0,34.0,-100.00,ENE,70,2.0,11.0,70,0.00,,,0.00,0.000000,,2013-02-14 06:11:00,
2013-02-13 22:42:00,43.0,34.0,-100.00,ENE,70,2.0,11.0,70,0.00,,,0.00,0.000000,,2013-02-14 06:42:00,
2013-02-13 22:52:00,43.0,34.0,-100.00,ENE,70,2.0,11.0,70,0.00,,,0.00,0.000000,,2013-02-14 06:52:00,
2013-02-13 23:01:00,43.0,34.0,-100.00,ENE,70,2.0,11.0,70,0.00,,,0.00,0.000000,,2013-02-14 07:01:00,
2013-02-13 23:11:00,43.0,32.0,-100.00,ESE,118,2.0,8.0,65,0.00,,,0.00,0.000000,,2013-02-14 07:11:00,
2013-02-13 23:42:00,43.0,32.0,-100.00,ESE,118,2.0,8.0,65,0.00,,,0.00,0.000000,,2013-02-14 07:42:00,
2013-02-13 23:52:00,43.0,32.0,-100.00,ESE,118,2.0,8.0,65,0.00,,,0.00,0.000000,,2013-02-14 07:52:00,